Location: Winthrop
(48.4780°N, 120.1850°W)
Time: 12:20:11
(UTC-07:00)

Vanguard 3 - Pass Details

Date: 09 February 2023
Orbit: 508 x 3249 km, 33.4° (Epoch: 28 March)

Event Time Altitude Azimuth Distance (km) Brightness Sun altitude
Rises 20:47:06 0° 259° (WSW) 4,377 11.6 -35.6°
Reaches altitude 10° 20:49:58 10° 249° (WSW) 3,736 11.0 -36.1°
Maximum altitude 20:58:46 33° 190° (S) 3,199 9.9 -37.4°
Enters shadow 20:59:57 32° 182° (S) 3,317 9.9 -37.6°
